COSMOS 1275 DEB, 12741

Orbit data source: Space-Track

COSMOS 1275 DEB, 12741 is space debris in LEO originally from a launch on Thu, 04 Jun 1981 UTC launched from the Plesetsk Missile And Space Complex (PKMTR). Debris objects in space refer to the collection of defunct objects orbiting the Earth. Examples of debris include non-operational satellites, rocket bodies, and fragments generated from explosions, collisions, or faulty payload assembly.

Loading next visibility...
Identifier
12741, 1981-053CJ
Orbit
LEO
Country
Flag of CISCIS
Related business
Manufacturer
Unknown
Mission
Spacecraft
Bus & Motor
Unknown
Mass
Unknown
Launch date (UTC)
1981-06-04 (45 years ago)
Launch vehicle
Unknown
Launch site
Plesetsk Missile And Space Complex (PKMTR)
Object type
Payload
Rocket body
Debris
Shape & HBR
Unknown shape, 0.1 m
Radar Cross Section
Small (<0.1 m²)

Expand to show TLE details & history
Last TLE update: 18 hours ago

TLE from 18 hours ago
0 COSMOS 1275 DEB
1 12741U 81053CJ  25351.26449039  .00000492  00000-0  37909-3 0  9991
2 12741  82.9467 269.1292 0062221 230.0183 284.5301 13.90280075235574
Epoch: 2025-12-17T06:20Z
TLE epoch observation values (Epoch: 2025-12-17T06:20:51.969Z)
Latitude
25.96326°
Longitude
-95.66015°
Altitude
919.672 km
Speed
7.4 km/s
True Right ascension
05h 42m 46s
True Declination
25° 49' 52"
Sunlit
Object was in full shadow at epoch
Visualization orbit readout
Latitude
Unknown
Longitude
Unknown
Altitude
Unknown
Speed
Unknown
Apparent Right ascension
Unknown
Apparent Declination
Unknown
Sunlit
N/A
Visualization observer readout
Local Sidereal Time
23:04:16
Azimuth
Unknown
Elevation
Unknown
Doppler factor
Unknown
Orbital elements
Apogee altitude
970.216 km
Perigee altitude
879.337 km
Semi-major axis
7,302.914 km
Eccentricity
0.00622
Inclination
82.9467°
RAAN
269.1292°
Arg. of periapsis
230.0183°
True anomaly
283.83857°
Mean anomaly
284.5301°
Eccentric anomaly
284.18447°
Mean motion
3.47775 °/min
Orbital period
103.52 mins
BSTAR
0.00037909
Loading maneuver chart data...
Computing Atmospheric mass density...
Loading historical data...
Loading historical data...
Loading historical data...
Loading historical data...
Loading historical data...
Loading historical data...
Loading historical data...

Documentation

Showing up to 5 results
|